1529604001.0,7646,25.25,74084.3,10.17,-14.33,-16.27,0,*7E
1529604002.2,7647,25.25,74078.8,10.17,-14.65,-16.55,0,*79
1529604003.44,7648,25.19,74074.5,10.17,-14.79,-16.69,0,*74
1529604004.67,7649,25.25,74074.5,10.17,-14.79,-16.83,0,*71
1529604005.86,7650,25.19,74072.5,10.17,-14.61,-16.41,0,*7E
1529604007.1,7651,25.19,74074.5,10.15,-14.15,-16.03,0,*78
1529604008.35,7652,25.19,74074.0,10.15,-14.23,-16.13,0,*7F
1529604009.58,7653,25.19,74072.5,10.17,-14.23,-16.13,0,*7C
1529604010.81,7654,25.19,74068.8,10.15,-14.23,-16.03,0,*78
1529604012.07,7655,25.25,74076.0,10.15,-14.15,-15.89,0,*7D
1529604013.3,7656,25.19,74078.5,10.17,-13.93,-15.81,0,*7D
1529604014.5,7657,25.25,74082.0,10.17,-14.19,-15.95,0,*7C
1529604015.73,7658,25.19,74080.3,10.15,-14.65,-16.41,0,*70
1529604016.92,7659,25.19,74078.3,10.17,-14.61,-16.37,0,*76
1529604018.2,7660,25.19,74076.5,10.15,-14.51,-16.27,0,*7C
1529604019.43,7661,25.19,74078.8,10.17,-14.37,-16.17,0,*7C
1529604020.71,7662,25.19,74080.5,10.15,-14.51,-16.17,0,*7D
1529604021.99,7663,25.19,74080.3,10.15,-14.43,-16.17,0,*7F
1529604023.27,7664,25.25,74078.8,10.15,-14.43,-16.13,0,*7C
1529604024.55,7665,25.19,74086.0,10.15,-14.51,-16.13,0,*7E
1529604025.83,7666,25.25,74088.3,10.15,-14.43,-16.17,0,*7A
1529604027.04,7667,25.25,74086.0,10.17,-14.69,-16.23,0,*76
1529604028.27,7668,25.25,74082.8,10.17,-14.83,-16.55,0,*7C
1529604029.5,7669,25.19,74080.0,10.17,-14.83,-16.41,0,*78
1529604030.7,7670,25.19,74082.0,10.17,-14.89,-16.59,0,*73
1529604031.92,7671,25.19,74078.8,10.15,-15.25,-16.89,0,*7A
1529604033.17,7672,25.19,74078.8,10.15,-14.97,-16.59,0,*7C
1529604034.42,7673,25.19,74078.3,10.15,-15.01,-16.59,0,*73
1529604035.68,7674,25.19,74078.5,10.15,-14.97,-16.65,0,*75
1529604036.87,7675,25.19,74078.8,10.13,-14.89,-16.45,0,*7F
1529604038.12,7676,25.19,74076.0,10.13,-14.75,-16.27,0,*7B
1529604039.33,7677,25.19,74076.0,10.13,-14.69,-16.31,0,*70
1529604040.58,7678,25.19,74076.0,10.13,-14.75,-16.17,0,*76
1529604041.82,7679,25.19,74076.3,10.13,-14.75,-16.31,0,*73
1529604043.07,7680,25.19,74072.3,10.13,-14.75,-16.27,0,*72
1529604044.31,7681,25.19,74072.8,10.13,-14.75,-16.27,0,*73
1529604045.54,7682,25.19,74072.8,10.13,-14.37,-15.85,0,*7D
1529604046.77,7683,25.19,74076.8,10.13,-14.37,-15.89,0,*70
1529604047.99,7684,25.25,74078.8,10.13,-14.69,-16.17,0,*78
1529604049.24,7685,25.25,74078.8,10.13,-14.83,-16.27,0,*7E
1529604050.49,7686,25.19,74076.3,10.13,-14.75,-16.17,0,*77
1529604051.73,7687,25.19,74076.5,10.13,-14.75,-16.13,0,*72
1529604052.99,7688,25.19,74078.3,10.11,-14.55,-16.03,0,*7C
1529604054.21,7689,25.19,74078.5,10.13,-14.75,-16.03,0,*7D
1529604055.43,7690,25.19,74076.0,10.13,-14.43,-15.75,0,*72
1529604056.65,7691,25.19,74076.8,10.13,-14.23,-15.53,0,*71
1529604057.84,7692,25.19,74076.3,10.13,-14.37,-15.67,0,*70
1529604059.09,7693,25.19,74080.5,10.13,-14.43,-15.85,0,*7E
1529604060.34,7694,25.19,74076.8,10.13,-14.75,-16.13,0,*70
1529604061.6,7695,25.19,74076.8,10.13,-14.83,-16.17,0,*7C
1529604062.87,7696,25.25,74078.0,10.11,-14.93,-16.23,0,*7B
1529604064.12,7697,25.25,74078.3,10.11,-14.75,-16.03,0,*70
1529604065.37,7698,25.25,74076.8,10.11,-14.75,-16.03,0,*7F
1529604066.62,7699,25.19,74078.3,10.11,-14.69,-15.81,0,*7A
1529604067.87,7700,25.19,74078.5,10.11,-14.43,-15.63,0,*7F
1529604069.1,7701,25.19,74076.3,10.11,-14.61,-15.95,0,*77
1529604070.34,7702,25.19,74074.3,10.11,-15.21,-16.37,0,*7A
1529604071.59,7703,25.19,74076.3,10.11,-15.15,-16.31,0,*7A
1529604072.86,7704,25.19,74072.5,10.11,-15.01,-16.31,0,*78
1529604074.08,7705,25.19,74076.8,10.11,-14.89,-16.03,0,*79
1529604075.31,7706,25.19,74074.5,10.13,-14.65,-15.85,0,*77
1529604076.53,7707,25.19,74076.0,10.09,-14.61,-15.81,0,*7D
1529604077.78,7708,25.19,74074.5,10.09,-14.43,-15.57,0,*79
1529604079.04,7709,25.19,74078.0,10.11,-14.33,-15.57,0,*76
1529604080.3,7710,25.19,74076.8,10.11,-14.43,-15.49,0,*76
1529604081.57,7711,25.19,74072.8,10.11,-14.47,-15.49,0,*73
1529604082.83,7712,25.19,74076.0,10.11,-14.33,-15.43,0,*79
1529604084.08,7713,25.19,74072.8,10.11,-14.33,-15.43,0,*78
1529604085.34,7714,25.19,74074.3,10.11,-14.33,-15.43,0,*7F
1529604086.6,7715,25.19,74076.3,10.11,-14.29,-15.43,0,*75
1529604087.86,7716,25.19,74076.0,10.11,-14.19,-15.43,0,*75
1529604089.09,7717,25.19,74072.0,10.13,-14.43,-15.53,0,*78
1529604090.35,7718,25.19,74074.5,10.11,-14.33,-15.43,0,*73
1529604091.58,7719,25.19,74074.0,10.13,-14.23,-15.39,0,*7C
1529604092.84,7720,25.19,74078.3,10.11,-14.33,-15.43,0,*78
1529604094.1,7721,25.19,74074.3,10.11,-14.33,-15.43,0,*79
1529604095.32,7722,25.19,74074.3,10.11,-14.33,-15.63,0,*78
1529604096.55,7723,25.19,74072.5,10.13,-14.43,-15.67,0,*78
1529604097.8,7724,25.19,74076.8,10.11,-14.43,-15.63,0,*79
1529604099.0,7725,25.19,74074.3,10.13,-14.29,-15.53,0,*75
1529604100.23,7726,25.19,74074.5,10.11,-14.29,-15.63,0,*77
1529604101.46,7727,25.19,74074.3,10.13,-14.29,-15.57,0,*73
1529604102.66,7728,25.19,74076.8,10.13,-14.29,-15.63,0,*7B
1529604103.88,7729,25.19,74072.0,10.13,-14.29,-15.57,0,*7D
1529604105.14,7730,25.19,74072.8,10.11,-14.55,-15.95,0,*72
1529604106.43,7731,25.19,74076.0,10.11,-14.47,-15.81,0,*75
1529604107.69,7732,25.19,74074.3,10.11,-14.55,-15.95,0,*70
1529604108.98,7733,25.19,74072.8,10.11,-14.47,-15.89,0,*7F
1529604110.26,7734,25.19,74074.8,10.11,-14.43,-15.89,0,*7C
1529604111.51,7735,25.19,74074.0,10.11,-14.43,-15.75,0,*7E
1529604112.8,7736,25.19,74074.3,10.11,-14.47,-15.89,0,*7A
1529604114.08,7737,25.19,74078.5,10.11,-14.55,-16.17,0,*7C
1529604115.33,7738,25.19,74076.8,10.11,-14.69,-16.09,0,*73
1529604116.61,7739,25.19,74076.0,10.11,-14.79,-16.31,0,*78
1529604117.88,7740,25.19,74078.8,10.11,-14.75,-16.31,0,*7A
1529604119.13,7741,25.19,74074.5,10.11,-14.89,-16.31,0,*78
1529604120.35,7742,25.19,74074.5,10.13,-14.97,-16.41,0,*71
1529604121.59,7743,25.19,74072.8,10.09,-14.79,-16.31,0,*7C
1529604122.84,7744,25.19,74072.0,10.07,-14.93,-16.37,0,*77
1529604124.08,7745,25.19,74072.8,10.09,-14.93,-16.31,0,*7E
1529604125.32,7746,25.19,74074.0,10.07,-14.97,-16.37,0,*71
1529604126.57,7747,25.19,74074.0,10.07,-14.97,-16.37,0,*70
1529604127.81,7748,25.19,74068.5,10.07,-14.93,-16.37,0,*7B
1529604129.09,7749,25.19,74068.5,10.07,-14.79,-16.23,0,*7B
1529604130.36,7750,25.19,74070.5,10.07,-14.79,-16.27,0,*77
1529604131.64,7751,25.19,74068.0,10.07,-14.79,-16.27,0,*76
1529604132.88,7752,25.19,74068.8,10.03,-14.79,-16.31,0,*76
1529604134.12,7753,25.19,74066.3,10.03,-14.79,-16.31,0,*77
1529604135.35,7754,25.19,74064.8,10.03,-14.83,-16.41,0,*72
1529604136.58,7755,25.19,74066.5,10.05,-14.83,-16.45,0,*71
1529604137.78,7756,25.19,74066.5,10.05,-14.65,-16.41,0,*7E
1529604139.0,7757,25.19,74068.0,10.03,-14.37,-16.27,0,*7E
1529604140.23,7758,25.19,74064.8,10.05,-14.37,-16.31,0,*70
1529604141.46,7759,25.19,74064.8,10.05,-14.43,-16.41,0,*75
1529604142.68,7760,25.19,74070.5,10.03,-14.51,-16.45,0,*7E
1529604143.88,7761,25.19,74068.3,10.03,-14.37,-16.41,0,*7B
1529604145.08,7762,25.19,74064.5,10.03,-14.65,-16.59,0,*76
1529604146.28,7763,25.19,74066.3,10.03,-14.65,-16.75,0,*79
1529604147.48,7764,25.19,74066.5,10.03,-14.37,-16.55,0,*7B
1529604148.71,7765,25.19,74066.5,10.03,-14.43,-16.59,0,*75
1529604149.9,7766,25.19,74066.5,10.03,-14.29,-16.45,0,*77
1529604151.09,7767,25.19,74066.3,10.03,-14.23,-16.45,0,*7C
1529604152.3,7768,25.19,74068.3,10.03,-14.37,-16.59,0,*7B
1529604153.54,7769,25.19,74064.0,10.03,-14.43,-16.69,0,*7A
1529604154.74,7770,25.19,74066.8,10.03,-14.23,-16.45,0,*7A
1529604155.94,7771,25.19,74068.8,10.03,-14.23,-16.45,0,*7B
1529604157.13,7772,25.19,74068.5,10.03,-14.29,-16.45,0,*72
1529604158.33,7773,25.19,74068.3,10.03,-14.29,-16.41,0,*77
1529604159.53,7774,25.19,74066.0,10.03,-14.37,-16.59,0,*76
1529604160.76,7775,25.19,74070.3,10.03,-14.43,-16.59,0,*74
1529604161.94,7776,25.19,74070.5,10.03,-14.69,-16.89,0,*72
1529604163.16,7777,25.19,74070.0,10.03,-14.79,-16.89,0,*72
1529604164.38,7778,25.19,74070.3,10.03,-14.79,-16.89,0,*7D
1529604165.6,7779,25.19,74072.3,10.03,-14.83,-16.89,0,*79
1529604166.84,7780,25.19,74068.8,10.01,-14.93,-16.83,0,*76
1529604168.06,7781,25.19,74068.5,10.03,-14.79,-16.79,0,*74
1529604169.31,7782,25.19,74068.5,10.01,-14.83,-16.79,0,*70
1529604170.53,7783,25.19,74070.3,10.01,-14.89,-16.83,0,*7E
1529604171.75,7784,25.19,74066.3,10.03,-14.97,-16.79,0,*71
1529604172.99,7785,25.19,74066.8,10.01,-14.93,-16.79,0,*76
1529604174.2,7786,25.19,74066.0,10.03,-14.69,-16.69,0,*73
1529604175.42,7787,25.19,74064.5,10.03,-14.55,-16.41,0,*77
1529604176.61,7788,25.19,74066.3,10.03,-14.69,-16.45,0,*73
1529604177.82,7789,25.19,74070.3,10.01,-14.69,-16.59,0,*7D
1529604179.09,7790,25.19,74068.8,10.01,-14.75,-16.65,0,*77
1529604180.36,7791,25.19,74072.3,10.01,-14.83,-16.51,0,*78
1529604181.62,7792,25.19,74072.8,10.01,-14.93,-16.65,0,*7D
1529604182.89,7793,25.19,74072.5,10.01,-14.93,-16.65,0,*7C
1529604184.08,7794,25.19,74074.0,9.99,-15.07,-16.83,0,*46
1529604185.31,7795,25.19,74070.5,9.99,-14.97,-16.65,0,*47
1529604186.56,7796,25.19,74074.5,10.01,-15.01,-16.75,0,*72
1529604187.79,7797,25.19,74072.0,9.99,-15.21,-17.03,0,*48
1529604188.98,7798,25.19,74070.5,9.99,-15.11,-16.89,0,*47
1529604190.17,7799,25.19,74072.5,9.99,-15.11,-16.83,0,*4C
1529604191.38,7800,25.19,74070.3,9.99,-15.21,-16.89,0,*4A
1529604192.6,7801,25.19,74072.5,9.95,-15.35,-16.97,0,*4D
1529604193.82,7802,25.19,74068.5,9.95,-15.25,-17.03,0,*43
1529604195.03,7803,25.19,74066.3,9.93,-15.15,-16.93,0,*4F
1529604196.22,7804,25.19,74070.5,9.95,-15.11,-16.89,0,*41
1529604197.42,7805,25.19,74068.5,9.95,-15.07,-16.83,0,*4D
1529604198.64,7806,25.19,74066.5,9.95,-14.93,-16.79,0,*47
1529604199.88,7807,25.19,74064.8,9.93,-14.83,-16.83,0,*44
1529604201.14,7808,25.19,74066.8,9.93,-14.83,-16.75,0,*42
1529604202.38,7809,25.19,74070.0,9.93,-14.51,-16.45,0,*4F
1529604203.61,7810,25.19,74068.5,9.95,-14.23,-16.27,0,*40
1529604204.85,7811,25.19,74068.3,9.93,-14.23,-16.27,0,*47
1529604206.13,7812,25.19,74070.5,9.93,-13.97,-16.13,0,*4B
1529604207.38,7813,25.19,74068.8,9.95,-13.87,-16.09,0,*46
1529604208.6,7814,25.19,74072.0,9.95,-13.73,-15.89,0,*41
1529604209.88,7815,25.19,74072.0,9.93,-13.79,-16.17,0,*48
1529604211.12,7816,25.19,74072.0,9.93,-13.79,-16.03,0,*4E
1529604212.34,7817,25.19,74072.8,9.95,-13.61,-15.99,0,*40
1529604213.59,7818,25.19,74072.8,9.95,-13.61,-16.13,0,*4E
1529604214.81,7819,25.19,74070.5,9.95,-13.61,-15.99,0,*4E
1529604216.06,7820,25.19,74072.3,9.95,-13.37,-15.89,0,*46
1529604217.29,7821,25.19,74072.0,9.95,-13.23,-15.81,0,*4A
1529604218.56,7822,25.19,74072.8,9.93,-13.29,-15.81,0,*45
1529604219.77,7823,25.19,74074.5,9.93,-13.07,-15.67,0,*40
1529604221.01,7824,25.19,74072.0,9.95,-13.01,-15.49,0,*4B
1529604222.25,7825,25.19,74074.3,9.93,-12.83,-15.53,0,*4C
1529604223.52,7826,25.19,74076.0,9.93,-12.83,-15.57,0,*4B
1529604224.75,7827,25.19,74074.0,9.95,-12.79,-15.49,0,*46
1529604225.95,7828,25.19,74072.3,9.99,-12.93,-15.53,0,*4A
1529604227.17,7829,25.19,74072.8,9.99,-13.19,-15.89,0,*4F
1529604228.37,7830,25.19,74072.8,9.99,-13.11,-15.75,0,*4C
1529604229.57,7831,25.19,74074.8,9.99,-12.93,-15.53,0,*42
1529604230.78,7832,25.19,74072.5,9.95,-12.93,-15.53,0,*4D
1529604231.99,7833,25.19,74074.8,9.99,-13.01,-15.67,0,*4D
1529604233.22,7834,25.19,74072.8,9.99,-13.01,-15.75,0,*49
1529604234.44,7835,25.19,74072.8,9.99,-13.11,-15.89,0,*4A
1529604235.64,7836,25.19,74072.0,9.95,-13.19,-15.99,0,*4C
1529604236.86,7837,25.19,74074.5,9.99,-13.61,-16.41,0,*48
1529604238.05,7838,25.19,74072.8,9.95,-13.47,-16.41,0,*4F
1529604239.26,7839,25.19,74074.5,9.93,-13.65,-16.45,0,*4C
1529604240.5,7840,25.19,74072.0,9.95,-13.79,-16.51,0,*4C
1529604241.75,7841,25.19,74070.0,9.93,-13.79,-16.59,0,*43
1529604242.99,7842,25.19,74070.3,9.93,-13.79,-16.55,0,*4C
1529604244.24,7843,25.19,74068.0,9.93,-13.79,-16.55,0,*4D
1529604245.44,7844,25.19,74068.0,9.91,-13.73,-16.59,0,*4E
1529604246.63,7845,25.19,74066.5,9.91,-13.73,-16.45,0,*42
1529604247.9,7846,25.19,74068.3,9.89,-13.87,-16.51,0,*46
1529604249.12,7847,25.19,74064.5,9.91,-13.83,-16.45,0,*4F
1529604250.36,7848,25.19,74066.0,9.89,-13.97,-16.45,0,*4C
1529604251.61,7849,25.19,74062.3,9.89,-13.87,-16.37,0,*49
1529604252.8,7850,25.19,74062.5,9.91,-14.11,-16.45,0,*45
1529604254.02,7851,25.19,74064.0,9.91,-14.29,-16.65,0,*4D
1529604255.26,7852,25.19,74062.5,9.89,-14.29,-16.51,0,*40
1529604256.52,7853,25.19,74060.5,9.89,-14.15,-16.31,0,*48
1529604257.74,7854,25.19,74066.5,9.89,-14.19,-16.37,0,*45
1529604258.99,7855,25.19,74064.0,9.89,-14.15,-16.31,0,*4E
1529604260.26,7856,25.19,74060.5,9.89,-14.43,-16.51,0,*48
1529604261.51,7857,25.19,74066.5,9.87,-14.51,-16.51,0,*44
1529604262.75,7858,25.19,74064.5,9.89,-14.43,-16.45,0,*43
1529604264.0,7859,25.19,74062.8,9.87,-14.51,-16.51,0,*4A
1529604265.22,7860,25.19,74064.5,9.87,-14.47,-16.37,0,*47
1529604266.42,7861,25.19,74064.3,9.87,-14.37,-16.37,0,*41
1529604267.64,7862,25.19,74064.8,9.87,-14.37,-16.13,0,*44
1529604268.86,7863,25.19,74066.0,9.87,-14.37,-16.23,0,*46
1529604270.1,7864,25.19,74066.8,9.85,-14.55,-16.41,0,*43
1529604271.3,7865,25.19,74070.8,9.87,-14.65,-16.55,0,*46
1529604272.49,7866,25.19,74066.8,9.87,-14.61,-16.37,0,*45
1529604273.74,7867,25.19,74066.0,9.87,-14.51,-16.27,0,*46
1529604274.97,7868,25.19,74064.3,9.87,-14.75,-16.51,0,*4E
1529604276.17,7869,25.19,74064.8,9.87,-14.61,-16.41,0,*4B
1529604277.44,7870,25.19,74064.0,9.85,-14.55,-16.31,0,*41
1529604278.65,7871,25.19,74064.8,9.87,-14.61,-16.23,0,*46
1529604279.92,7872,25.19,74064.8,9.85,-14.55,-16.31,0,*43
1529604281.17,7873,25.19,74066.5,9.87,-14.51,-16.23,0,*47
1529604282.44,7874,25.19,74066.0,9.85,-14.55,-16.27,0,*42
1529604283.67,7875,25.19,74062.0,9.85,-14.65,-16.27,0,*40
1529604284.91,7876,25.19,74066.3,9.85,-14.65,-16.27,0,*43
1529604286.15,7877,25.19,74064.0,9.85,-14.69,-16.31,0,*49
1529604287.35,7878,25.19,74064.5,9.83,-14.93,-16.45,0,*46
1529604288.57,7879,25.19,74066.5,9.83,-14.83,-16.45,0,*46
1529604289.76,7880,25.19,74066.5,9.83,-14.69,-16.41,0,*40
1529604290.97,7881,25.19,74066.0,9.83,-14.65,-16.27,0,*4D
1529604292.16,7882,25.19,74066.3,9.83,-14.69,-16.41,0,*42
1529604293.4,7883,25.19,74070.8,9.85,-14.83,-16.45,0,*45
1529604294.64,7884,25.19,74068.3,9.85,-14.79,-16.41,0,*43
1529604295.87,7885,25.19,74064.5,9.83,-14.83,-16.55,0,*44
1529604297.09,7886,25.19,74064.5,9.83,-14.93,-16.59,0,*4A
1529604298.31,7887,25.19,74068.0,9.83,-14.93,-16.59,0,*4B
1529604299.52,7888,25.19,74070.3,9.83,-14.93,-16.55,0,*48
1529604300.72,7889,25.19,74064.3,9.83,-15.07,-16.59,0,*49
1529604301.91,7890,25.19,74070.3,9.83,-15.11,-16.75,0,*48
1529604303.13,7891,25.19,74068.0,9.83,-15.15,-16.69,0,*40
1529604304.33,7892,25.19,74066.5,9.83,-15.07,-16.59,0,*43
1529604305.52,7893,25.19,74066.3,9.83,-15.07,-16.59,0,*42
1529604306.72,7894,25.19,74070.3,9.83,-15.11,-16.59,0,*42
1529604307.92,7895,25.19,74068.8,9.83,-15.15,-16.59,0,*47
1529604309.12,7896,25.19,74068.5,9.83,-15.25,-16.75,0,*49
1529604310.36,7897,25.19,74070.3,9.81,-15.21,-16.75,0,*4E
1529604311.56,7898,25.19,74066.8,9.83,-15.25,-16.75,0,*47
1529604312.78,7899,25.19,74066.3,9.81,-15.29,-16.75,0,*48
1529604313.98,7900,25.19,74070.0,9.83,-15.25,-16.75,0,*47
1529604315.18,7901,25.19,74070.0,9.83,-15.29,-16.75,0,*4A
1529604316.43,7902,25.19,74070.0,9.81,-15.35,-16.75,0,*46
1529604317.67,7903,25.19,74070.5,9.81,-15.35,-16.79,0,*4B
1529604318.91,7904,25.19,74070.3,9.81,-15.35,-16.79,0,*4C
1529604320.16,7905,25.19,74072.8,9.81,-15.35,-16.75,0,*41
1529604321.36,7906,25.19,74072.0,9.83,-15.29,-16.75,0,*4D
1529604322.61,7907,25.19,74072.5,9.81,-15.35,-16.75,0,*43
1529604323.88,7908,25.19,74068.8,9.81,-15.35,-16.65,0,*4D
1529604325.1,7909,25.19,74072.0,9.81,-15.29,-16.59,0,*4E
1529604326.31,7910,25.19,74070.0,9.83,-15.07,-16.31,0,*46
1529604327.55,7911,25.19,74074.0,9.81,-15.15,-16.51,0,*40
1529604328.77,7912,25.19,74070.8,9.81,-15.29,-16.45,0,*49
1529604329.98,7913,25.19,74074.0,9.81,-15.29,-16.45,0,*48
1529604331.22,7914,25.19,74070.0,9.81,-15.29,-16.51,0,*4A
1529604332.41,7915,25.19,74068.8,9.83,-15.25,-16.55,0,*41
1529604333.66,7916,25.19,74072.8,9.81,-15.35,-16.59,0,*4D
1529604334.86,7917,25.19,74074.3,9.83,-15.29,-16.55,0,*4F
1529604336.11,7918,25.19,74074.5,9.81,-15.43,-16.59,0,*42
1529604337.3,7919,25.19,74074.3,9.83,-15.29,-16.55,0,*41
1529604338.57,7920,25.19,74072.5,9.81,-15.35,-16.65,0,*47
1529604339.77,7921,25.19,74068.8,9.83,-15.53,-16.75,0,*45
1529604340.99,7922,25.19,74072.5,9.81,-15.49,-16.75,0,*4F
1529604342.24,7923,25.19,74066.5,9.81,-15.43,-16.75,0,*44
1529604343.49,7924,25.19,74066.8,9.81,-15.43,-16.75,0,*43
1529604344.73,7925,25.19,74072.5,9.81,-15.57,-16.75,0,*47
1529604345.95,7926,25.19,74068.0,9.81,-15.75,-16.93,0,*4C
1529604347.21,7927,25.19,74068.5,9.81,-15.35,-16.65,0,*40
1529604348.41,7928,25.19,74068.5,9.83,-15.67,-16.75,0,*4B
1529604349.61,7929,25.19,74068.0,9.79,-15.49,-16.75,0,*43
1529604350.83,7930,25.19,74068.0,9.83,-15.35,-16.59,0,*4B
1529604352.03,7931,25.19,74070.3,9.83,-15.29,-16.59,0,*47
1529604353.3,7932,25.19,74068.0,9.81,-15.43,-16.65,0,*45
1529604354.54,7933,25.19,74068.5,9.83,-15.39,-16.69,0,*47
1529604355.81,7934,25.19,74068.5,9.81,-15.43,-16.65,0,*43
1529604357.01,7935,25.19,74068.5,9.83,-15.29,-16.55,0,*4F
1529604358.21,7936,25.19,74068.0,9.83,-15.29,-16.59,0,*40
1529604359.45,7937,25.19,74068.5,9.81,-15.57,-16.75,0,*44
1529604360.67,7938,25.19,74070.3,9.81,-15.49,-16.75,0,*44
1529604361.92,7939,25.19,74072.0,9.83,-15.39,-16.69,0,*4D
1529604363.16,7940,25.19,74068.0,9.81,-15.57,-16.59,0,*4A
1529604364.36,7941,25.19,74068.3,9.83,-15.67,-16.83,0,*4D
1529604365.57,7942,25.19,74070.3,9.81,-15.71,-16.89,0,*41
1529604366.79,7943,25.19,74064.8,9.83,-15.57,-16.83,0,*4C
1529604368.01,7944,25.19,74068.8,9.81,-15.63,-16.79,0,*4B
1529604369.21,7945,25.19,74070.8,9.83,-15.53,-16.75,0,*47
1529604370.43,7946,25.19,74074.3,9.83,-15.57,-16.75,0,*40
1529604371.65,7947,25.19,74068.0,9.83,-15.57,-16.75,0,*41
1529604372.84,7948,25.19,74068.0,9.83,-15.71,-16.89,0,*49
1529604374.06,7949,25.19,74074.3,9.81,-15.49,-16.75,0,*42
1529604375.29,7950,25.19,74072.8,9.81,-15.49,-16.75,0,*4A
1529604376.53,7951,25.19,74072.0,9.81,-15.35,-16.59,0,*4E
1529604377.73,7952,25.19,74074.0,9.83,-15.53,-16.59,0,*4F
1529604378.96,7953,25.19,74074.3,9.81,-15.21,-16.45,0,*44
1529604380.21,7954,25.19,74068.3,9.81,-15.57,-16.59,0,*4F
1529604381.43,7955,25.19,74070.8,9.83,-15.53,-16.69,0,*4B
1529604382.64,7956,25.19,74068.0,9.83,-15.95,-17.17,0,*4A
1529604383.92,7957,25.19,74068.8,9.81,-15.89,-17.07,0,*45
1529604385.17,7958,25.19,74070.3,9.83,-15.85,-17.03,0,*40
1529604386.44,7959,25.19,74068.8,9.81,-15.85,-17.03,0,*43
1529604387.68,7960,25.19,74072.0,9.83,-15.85,-17.03,0,*4B
1529604388.96,7961,25.19,74070.0,9.81,-15.89,-17.07,0,*40
1529604390.2,7962,25.19,74070.0,9.81,-15.99,-17.11,0,*45
1529604391.43,7963,25.19,74064.5,9.81,-15.99,-17.11,0,*44
1529604392.71,7964,25.19,74066.8,9.81,-15.85,-17.07,0,*49
1529604393.95,7965,25.19,74068.8,9.81,-16.03,-17.21,0,*41
1529604395.22,7966,25.19,74066.5,9.81,-16.23,-17.41,0,*46
1529604396.47,7967,25.19,74064.5,9.79,-15.89,-17.07,0,*41
1529604397.68,7968,25.19,74066.0,9.79,-15.99,-17.11,0,*48
1529604398.89,7969,25.19,74064.5,9.79,-15.99,-17.25,0,*4E
1529604400.14,7970,25.19,74066.0,9.77,-15.95,-17.07,0,*44
1529604401.33,7971,25.19,74066.5,9.79,-15.71,-16.89,0,*46
1529604402.55,7972,25.19,74070.5,9.79,-15.35,-16.59,0,*48
1529604403.79,7973,25.19,74068.3,9.81,-15.85,-16.93,0,*43
1529604405.01,7974,25.19,74070.8,9.79,-15.85,-16.93,0,*43
1529604406.2,7975,25.19,74072.3,9.79,-16.37,-17.49,0,*4E
1529604407.47,7976,25.19,74066.5,9.77,-16.51,-17.59,0,*42
1529604408.73,7977,25.19,74062.0,9.77,-16.51,-17.59,0,*43
1529604409.97,7978,25.19,74064.3,9.77,-16.23,-17.31,0,*47
1529604411.23,7979,25.19,74070.8,9.77,-16.17,-17.25,0,*44
1529604412.48,7980,25.19,74068.8,9.73,-16.45,-17.63,0,*43
1529604413.74,7981,25.19,74070.3,9.77,-16.23,-17.45,0,*42
1529604415.01,7982,25.19,74064.0,9.77,-16.23,-17.55,0,*40
1529604416.23,7983,25.19,74064.5,9.71,-16.23,-17.35,0,*41
1529604417.5,7984,25.19,74066.5,9.73,-16.13,-17.17,0,*47
1529604418.77,7985,25.19,74070.3,9.73,-16.09,-17.17,0,*4D
1529604420.05,7986,25.19,74070.3,9.73,-16.09,-17.21,0,*4B
1529604421.32,7987,25.19,74068.5,9.73,-16.13,-17.17,0,*44
1529604422.56,7988,25.19,74068.3,9.73,-15.99,-17.03,0,*4F
1529604423.83,7989,25.19,74066.3,9.73,-16.23,-17.45,0,*4E
1529604425.07,7990,25.19,74068.8,9.71,-16.23,-17.45,0,*44
1529604426.28,7991,25.19,74064.3,9.71,-16.23,-17.49,0,*49
1529604427.5,7992,25.19,74066.8,9.71,-16.27,-17.35,0,*45
1529604428.74,7993,25.19,74064.5,9.71,-16.27,-17.45,0,*43
1529604429.96,7994,25.19,74064.0,9.71,-16.27,-17.35,0,*43
1529604431.18,7995,25.19,74060.5,9.71,-16.13,-17.31,0,*41
1529604432.39,7996,25.19,74068.3,9.71,-16.23,-17.31,0,*41
1529604433.63,7997,25.19,74064.3,9.73,-16.27,-17.49,0,*49
1529604434.84,7998,25.19,74064.0,9.71,-16.31,-17.49,0,*43
1529604436.06,7999,25.19,74066.5,9.71,-16.27,-17.35,0,*4E
1529604437.3,8000,25.19,74066.3,9.71,-16.31,-17.45,0,*48
1529604438.51,8001,25.19,74062.8,9.71,-16.45,-17.63,0,*4E
1529604439.75,8002,25.19,74064.8,9.71,-16.31,-17.45,0,*4A
1529604441.01,8003,25.19,74064.3,9.69,-16.51,-17.63,0,*40
1529604442.23,8004,25.19,74060.8,9.67,-16.59,-17.63,0,*41
1529604443.45,8005,25.19,74060.8,9.69,-16.37,-17.49,0,*4E
1529604444.66,8006,25.19,74066.3,9.67,-16.45,-17.55,0,*4B
1529604445.88,8007,25.19,74066.5,9.67,-16.59,-17.63,0,*42
1529604447.08,8008,25.19,74064.0,9.67,-16.59,-17.69,0,*47
1529604448.28,8009,25.19,74064.8,9.67,-16.59,-17.69,0,*46
1529604449.52,8010,25.19,74062.8,9.67,-16.51,-17.63,0,*4C
1529604450.74,8011,25.19,74064.3,9.67,-16.65,-17.69,0,*40
1529604451.98,8012,25.19,74064.5,9.65,-16.69,-17.73,0,*46
1529604453.23,8013,25.19,74066.0,9.65,-16.65,-17.83,0,*44
1529604454.48,8014,25.19,74064.8,9.65,-16.69,-17.73,0,*40
1529604455.69,8015,25.19,74062.3,9.63,-16.75,-17.93,0,*44
1529604456.94,8016,25.19,74058.5,9.63,-16.65,-17.79,0,*42
1529604458.15,8017,25.19,74058.5,9.63,-16.83,-17.79,0,*4B
1529604459.34,8018,25.19,74058.3,9.63,-16.59,-17.73,0,*49
1529604460.53,8019,25.19,74060.8,9.63,-16.55,-17.49,0,*4D
1529604461.75,8020,25.19,74060.5,9.63,-16.45,-17.59,0,*47
1529604463.0,8021,25.19,74060.5,9.61,-16.45,-17.59,0,*44
1529604464.25,8022,25.19,74060.0,9.61,-16.45,-17.59,0,*47
1529604465.46,8023,25.19,74062.5,9.63,-16.45,-17.63,0,*4D
1529604466.65,8024,25.19,74060.0,9.63,-16.41,-17.49,0,*46
1529604467.91,8025,25.19,74064.3,9.61,-16.41,-17.59,0,*44
1529604469.16,8026,25.19,74066.3,9.61,-16.27,-17.35,0,*4D
1529604470.38,8027,25.19,74066.3,9.61,-16.37,-17.35,0,*4D
1529604471.6,8028,25.19,74064.8,9.63,-16.27,-17.35,0,*41
1529604472.83,8029,25.19,74062.3,9.61,-16.41,-17.49,0,*49
1529604474.09,8030,25.19,74066.0,9.61,-16.23,-17.25,0,*4F
1529604475.36,8031,25.19,74064.3,9.61,-16.27,-17.45,0,*4C
1529604476.63,8032,25.19,74066.3,9.61,-16.23,-17.25,0,*4D
1529604477.9,8033,25.19,74064.3,9.61,-16.13,-17.11,0,*48
1529604479.18,8034,25.19,74062.8,9.61,-16.09,-17.03,0,*47
1529604480.45,8035,25.19,74068.0,9.61,-16.23,-17.25,0,*4A
1529604481.66,8036,25.19,74066.8,9.63,-16.27,-17.31,0,*4A
1529604482.86,8037,25.19,74060.3,9.63,-16.41,-17.35,0,*4F
1529604484.11,8038,25.19,74066.5,9.63,-16.09,-17.11,0,*4A
1529604485.32,8039,25.19,74064.5,9.63,-15.99,-17.11,0,*41
1529604486.56,8040,25.19,74066.0,9.63,-16.09,-17.17,0,*43
1529604487.83,8041,25.19,74064.0,9.65,-16.23,-17.25,0,*4D
1529604489.02,8042,25.19,74062.8,9.63,-16.41,-17.49,0,*46
1529604490.24,8043,25.19,74064.8,9.63,-16.41,-17.45,0,*4B
1529604491.44,8044,25.19,74064.8,9.63,-16.37,-17.35,0,*4A
1529604492.64,8045,25.19,74064.5,9.63,-16.41,-17.35,0,*4A
1529604493.88,8046,25.19,74064.0,9.61,-16.27,-17.31,0,*4F
1529604495.13,8047,25.19,74066.0,9.61,-16.45,-17.59,0,*44
1529604496.35,8048,25.19,74060.0,9.61,-16.59,-17.73,0,*4E
1529604497.57,8049,25.19,74060.3,9.61,-16.59,-17.73,0,*4F
1529604498.81,8050,25.19,74064.0,9.61,-16.55,-17.63,0,*4A
1529604500.06,8051,25.19,74062.5,9.61,-16.55,-17.63,0,*4B
1529604501.28,8052,25.19,74062.5,9.61,-16.75,-17.73,0,*4B
1529604502.53,8053,25.19,74062.3,9.61,-16.75,-17.79,0,*40
1529604503.73,8054,25.19,74064.3,9.59,-16.75,-17.83,0,*49
1529604504.93,8055,25.19,74064.5,9.59,-16.75,-17.83,0,*48
1529604506.15,8056,25.19,74066.5,9.59,-16.75,-17.79,0,*4E